www.pogodaiklimat.ru

Погода и климат >> Архив погоды >> Вьетнам >> Намдинь


ПОГОДА в Намдине

  • Прогноз погоды в Намдине
  • Монитор погоды в Намдине

АРХИВ ПОГОДЫ в Намдине

Время (UTC), дата Ветер
(напр.,м/с)
 
Видим.   Явления Облачность Т
(С)
Тd
(С)
f
(%)
Тe
(С)
Тes
(С)
Комфортность P
(гПа)
Po
(гПа)
Тmin
(С)
Tmax
(С)
R
(мм)
R24
(мм)
S
(см)
15 10.09 штиль 0 10 км {гроза, ливн. осадки} 8/8 300 м
[Cu Sc]
+27.4 +26.8 97 +43 +43 опасность
перегрева
1008.9 1008.6
18 10.09 штиль 0 10 км {гроза} 8/8 300 м
[Cb cap]
+26.8 +26.5 98 +41 +41 опасность
перегрева
1009.1 1008.8 0.3
21 10.09 штиль 0 10 км {гроза} 8/8 300 м
[Cb cap]
+26.8 +26.5 98 +41 +41 опасность
перегрева
1008.8 1008.5
00 11.09 штиль 0 10 км в посл. час ливневой дождь {гроза} 8/8
[Cb cap]
+26.8 +26.5 98 +41 +41 опасность
перегрева
1010.6 1010.3 +25.5 0.4
03 11.09 ЮВ 1 10 км 8/8 600 м
[Cu Sc]
+30.1 +27.3 85 +48 +52 опасность
перегрева
1011.8 1011.5
06 11.09 СЗ 2 10 км гроза, ливневой дождь 10/10 300 м
[Cb cap]
+27.2 +24.9 87 +39 +39 очень
душно
1009.9 1009.6 0.6
09 11.09 СВ 1 20 км 3/3 600 м
[Cu med, cong]
+30.3 +26.5 80 +46 +50 опасность
перегрева
1008.6 1008.3
12 11.09 ЮВ 1 10 км {гроза, ливн. осадки} 6/6 <50 м
[Cu Sc]
+28.5 +26.5 89 +44 +44 опасность
перегрева
1010.2 1009.9 +31.5 34
15 11.09 СВ 1 10 км 3/3 1000 м
[Sc]
+27.6 +26.6 94 +42 +42 опасность
перегрева
1012.0 1011.7
18 11.09 С 1 10 км 9/9 1000 м
[Sc]
+27.3 +26.6 96 +42 +42 опасность
перегрева
1011.2 1010.9
21 11.09 СЗ 1 10 км гроза без осадков 10/10 600 м
[Cb cap]
+26.6 +26.0 97 +40 +40 очень
душно
1010.4 1010.1
00 12.09 СЗ 1 10 км {гроза} 9/9
[Cu Sc]
+26.8 +25.9 95 +40 +40 очень
душно
1012.1 1011.8 +26.2
03 12.09 В 2 10 км 8/8 300 м
[Cu med, cong]
+30.7 +26.3 77 +46 +50 опасность
перегрева
1012.4 1012.1
06 12.09 СВ 2 10 км гроза без осадков 10/10 300 м
[Cb cap]
+31.8 +25.6 70 +47 +47 опасность
перегрева
1010.1 1009.8
09 12.09 СВ 2 10 км {гроза, ливн. осадки} 4/4 600 м
[Cu med, cong]
+30.4 +25.9 77 +45 +48 опасность
перегрева
1007.8 1007.5
12 12.09 Ю 1 10 км {гроза, ливн. осадки} 5/5 1000 м
[Sc]
+28.4 +26.3 88 +43 +43 опасность
перегрева
1008.9 1008.6 +32.5 1
15 12.09 З 1 10 км 4/4 300 м
[Cu hum]
+27.2 +26.3 95 +41 +41 опасность
перегрева
1010.6 1010.3
18 12.09 З 2 10 км 3/3 300 м
[Cu hum]
+26.5 +26.0 97 +40 +40 очень
душно
1009.5 1009.2
21 12.09 С 2 10 км 3/3 1000 м
[Sc]
+25.9 +25.7 99 +38 +38 очень
душно
1008.5 1008.2
00 13.09 В 1 10 км 3/3 600 м
[Cu med, cong]
+27.2 +26.0 93 +41 +42 опасность
перегрева
1009.8 1009.5 +25.6
03 13.09 штиль 0 20 км 4/4 600 м
[Cu med, cong]
+30.8 +25.1 72 +45 +57 опасность
перегрева
1010.6 1010.3
06 13.09 штиль 0 20 км 5/5 600 м
[Cu med, cong]
+32.4 +24.7 64 +45 +58 опасность
перегрева
1008.4 1008.1
09 13.09 штиль 0 20 км 3/3 600 м
[Cu med, cong]
+32.7 +24.9 64 +46 +51 опасность
перегрева
1006.8 1006.5
12 13.09 ЮВ 2 10 км ясно +29.6 +24.1 72 +41 +41 опасность
перегрева
1007.5 1007.2 +33.5
15 13.09 штиль 0 10 км ясно +27.8 +25.8 89 +41 +41 опасность
перегрева
1009.3 1009.0
18 13.09 штиль 0 10 км ясно +26.8 +25.6 93 +39 +39 очень
душно
1008.9 1008.6
21 13.09 штиль 0 10 км ясно +26.0 +25.4 97 +38 +38 очень
душно
1008.6 1008.3
00 14.09 штиль 0 20 км ясно +27.0 +26.1 95 +41 +43 опасность
перегрева
1009.5 1009.2 +26.5
03 14.09 С 1 20 км 3/3 600 м
[Cu med, cong]
+31.2 +25.2 70 +45 +57 опасность
перегрева
1010.7 1010.4
06 14.09 С 2 20 км 3/3 600 м
[Cu med, cong]
+33.4 +23.6 57 +45 +58 опасность
перегрева
1008.8 1008.5
09 14.09 ЮЗ 2 20 км 1/1 600 м
[Cu med, cong]
+34.0 +23.0 53 +44 +49 опасность
перегрева
1006.7 1006.4
12 14.09 штиль 0 10 км ясно +30.6 +25.5 74 +45 +45 опасность
перегрева
1007.3 1007.0 +34.5
15 14.09 штиль 0 10 км ясно +29.2 +26.1 83 +44 +44 опасность
перегрева
1009.5 1009.2
18 14.09 штиль 0 10 км ясно +28.2 +25.6 86 +42 +42 опасность
перегрева
1008.5 1008.2
21 14.09 ЮЗ 1 10 км ясно +27.4 +24.5 84 +39 +39 очень
душно
1008.0 1007.7
00 15.09 штиль 0 20 км 3/3 1000 м
[Sc]
+27.7 +25.5 88 +41 +42 опасность
перегрева
1009.3 1009.0 +27.0
03 15.09 СЗ 2 20 км 3/3 600 м
[Cu med, cong]
+31.8 +24.7 66 +45 +55 опасность
перегрева
1010.1 1009.8
06 15.09 СЗ 1 20 км 8/8 600 м
[Cu Sc]
+32.8 +24.4 61 +45 +49 опасность
перегрева
1007.7 1007.4
09 15.09 З 1 20 км 8/8 600 м
[Cu Sc]
+33.2 +24.7 61 +46 +47 опасность
перегрева
1005.9 1005.6
12 15.09 ЮВ 1 10 км 9/9 1000 м
[Sc]
+29.8 +25.4 77 +44 +44 опасность
перегрева
1006.9 1006.6 +34.5
15 15.09 Ю 1 10 км 3/3 1000 м
[Sc]
+29.4 +26.4 84 +45 +45 опасность
перегрева
1008.6 1008.3
18 15.09 ЮЗ 1 10 км ясно +28.5 +26.4 88 +43 +43 опасность
перегрева
1008.2 1007.9
21 15.09 ЮЗ 1 10 км ясно +27.7 +26.3 92 +42 +42 опасность
перегрева
1008.0 1007.7
00 16.09 штиль 0 20 км ясно +28.5 +26.4 88 +43 +46 опасность
перегрева
1009.0 1008.7 +27.2
03 16.09 штиль 0 20 км 3/3 600 м
[Cu med, cong]
+31.4 +25.8 72 +46 +61 опасность
перегрева
1009.9 1009.6
06 16.09 штиль 0 20 км 3/3 600 м
[Cu med, cong]
+33.2 +24.4 60 +46 +63 опасность
перегрева
1006.9 1006.6
09 16.09 В 2 20 км гроза без осадков 9/9 300 м
[Cb cap]
+27.8 +23.2 76 +37 +38 очень
душно
1006.1 1005.8
12 16.09 штиль 0 10 км {гроза} ясно +28.6 +24.0 76 +40 +40 очень
душно
1006.1 1005.8 +34.5
15 16.09 штиль 0 10 км ясно +28.1 +25.9 88 +42 +42 опасность
перегрева
1007.9 1007.6
18 16.09 штиль 0 10 км ясно +27.0 +26.1 95 +41 +41 опасность
перегрева
1008.7 1008.4
21 16.09 С 1 10 км ясно +26.7 +25.8 95 +40 +40 очень
душно
1008.3 1008.0
00 17.09 С 1 20 км ясно +27.4 +26.4 94 +42 +44 опасность
перегрева
1010.5 1010.2 +26.5
03 17.09 В 2 20 км 6/6 300 м
[Cu Sc]
+29.8 +25.7 79 +44 +50 опасность
перегрева
1011.6 1011.3
06 17.09 Ю 2 10 км {дождь} 8/8 600 м
[Cu Sc]
+29.2 +26.9 87 +46 +49 опасность
перегрева
1009.0 1008.7 0.0
09 17.09 СЗ 1 20 км 3/3 600 м
[Cu med, cong]
+33.2 +24.5 60 +46 +50 опасность
перегрева
1007.3 1007.0
12 17.09 ЮВ 1 10 км ясно +30.5 +25.5 75 +45 +45 опасность
перегрева
1008.1 1007.8 +33.5 0.0

 

Местоположение метеостанции Намдинь (Вьетнам): широта 20.43 долгота 106.15 высота над уровнем моря 3 м.

В архиве по умолчанию представлена погода в Намдине за последнюю неделю. Архивные данные за месяц целиком и за предыдущие месяцы, начиная с января 2011 года, Вы можете получить, выбрав интересующий диапазон дат из раскрывающегося списка и нажав кнопку "Ввод!".


*Определитесь, кто Вы:
робот инопланетянин человек

Внимание! Время в таблицах - всемирное. Для получения местного времени необходимо прибавить поправку, которая равна 7 ч.

Смотрите также архив погоды в соседних городах и на ближайших метеорологических станциях:

Погода в Пхульене (Вьетнам) (65 км)
Погода в Хайфоне (Вьетнам) (72 км)
Погода в Ханое (Вьетнам) (76 км)
Погода в Тханьхоа (Вьетнам) (85 км)
Погода на Бач Лонг Ви (Вьетнам) (166 км)
Погода в Лангсоне (Вьетнам) (168 км)
Погода в Баккане (Вьетнам) (194 км)
Погода во Вьенгсае (Лаос) (200 км)
Погода в Вине (Вьетнам) (202 км)
Погода в Самныа (Лаос) (217 км)

Пояснения к столбцам:

Ветер - указаны скорость ветра в м/с - средняя за 10 мин, порывы в срок и между сроками (в фигурных скобках) и направление, откуда дует ветер: С - северный, СВ - северо-восточный, В - восточный, ЮВ - юго-восточный, Ю - южный, ЮЗ - юго-западный, З - западный, СЗ - северо-западный.
Видимость - горизонтальная дальность видимости в метрах или километрах. При видимости от 1 до 10 км при отсутствии осадков обычно наблюдается дымка, при ухудшении видимости до 1 км и менее - туман. В сухую погоду видимость может ухудшаться дымом, пылью или мглою.
Явления - указаны атмосферные явления, наблюдавшиеся в срок или в последний час перед сроком; фигурными скобками обозначены явления, наблюдавшиеся между сроками (за 1-3 часа до срока); квадратными скобками обозначены град или гололедные отложения с указанием их диаметра в мм.
Облачность - указаны через наклонную черту общая и нижняя облачность в баллах и высота нижней границы облаков в метрах; квадратными скобками обозначены формы облаков: Ci - перистые, Cs - перисто-слоистые, Cc - перисто-кучевые, Ac - высококучевые, As - высокослоистые, Sc - слоисто-кучевые, Ns - слоисто-дождевые, Cu - кучевые, Cb - кучево-дождевые. Подробнее классификацию облаков см. в Атласе облаков (PDF).
T - Температура воздуха - температура, измеренная на высоте 2 м над землей.
Td - Температура точки росы - температура, при понижении до которой содержащийся в воздухе водяной пар достигнет насыщения.
f - Относительная влажность воздуха - влажноcть воздуха, измеренная на высоте 2 м над землей.
Te - Эффективная температура - температура, которую ощущает одетый по сезону человек в тени. Характеристика душности погоды. При расчете учитывается влияние влажности воздуха и скорости ветра на теплоощущения человека.
Tes - Эффективная температура на солнце - температура, которую ощущает человек, с поправкой на солнечный нагрев. Характеристика знойности погоды. Зависит от высоты солнца над горизонтом, облачности и скорости ветра. Ночью, в пасмурную погоду, а также при ветре 12 м/с и более поправка равна нулю.
P - Атмосферное давление - приведенное к уровню моря атмосферное давление.
Po - Атмосферное давление - измеренное на уровне метеостанции атмосферное давление.
Tmin - Минимальная температура - минимум температуры воздуха на высоте 2 м над землей.
Tmax - Максимальная температура - максимум температуры воздуха на высоте 2 м над землей.
R - Количество осадков - Количество выпавших осадков за период времени, мм. При наведении курсора мыши на число - период времени, за который выпало указанное количество осадков.
R24 - Количество осадков - Количество выпавших осадков за 24 часа, мм.
S - Снежный покров - Высота снежного покрова, см. При наведении курсора мыши на число - состояние снежного покрова и степень покрытия местности в баллах.